When you browse on this site, cookies collect data to enhance your experience and personalize the content and advertising you see.
Visit our Privacy Policy to learn more. By continuing to use the site, you agree to this use of cookies and data.
  • In Sweden
  • List of Countries
  • For 7 days
  • Water Temperature
  • Weather Map
  • Weather Widgets
  • user-avatar
    Login

    Hourly Weather Staryy Shustruy

    Today, 20 October, Sunday

    Time Temperature Precipitation Wind Pressure Humidity
    00:00 +8°C° 0 mm 2 mps 750 mmHg 92%
    01:00 +8°C° 0 mm 2 mps 750 mmHg 93%
    02:00 +8°C° 0 mm 2 mps 750 mmHg 94%
    03:00 +7°C° 0 mm 2 mps 750 mmHg 94%
    04:00 +7°C° 0 mm 3 mps 751 mmHg 94%
    05:00 +7°C° 0 mm 3 mps 751 mmHg 95%
    06:00 +7°C° 0 mm 3 mps 751 mmHg 95%
    07:00 +8°C° 0 mm 3 mps 751 mmHg 92%
    08:00 +9°C° 0 mm 3 mps 751 mmHg 90%
    09:00 +10°C° 0 mm 3 mps 751 mmHg 87%
    10:00 +11°C° 0 mm 4 mps 751 mmHg 82%
    11:00 +12°C° 0 mm 4 mps 751 mmHg 77%
    12:00 +14°C° 0 mm 4 mps 751 mmHg 72%
    13:00 +14°C° 0 mm 4 mps 751 mmHg 72%
    14:00 +14°C° 0 mm 4 mps 751 mmHg 71%
    15:00 +14°C° 0 mm 4 mps 751 mmHg 71%
    16:00 +13°C° 0 mm 3 mps 751 mmHg 75%
    17:00 +12°C° 0 mm 3 mps 751 mmHg 79%
    18:00 +11°C° 0 mm 3 mps 751 mmHg 84%
    19:00 +11°C° 0 mm 3 mps 751 mmHg 86%
    20:00 +11°C° 0 mm 3 mps 751 mmHg 88%
    21:00 +10°C° 0 mm 3 mps 751 mmHg 90%
    22:00 +10°C° 0 mm 3 mps 751 mmHg 90%
    23:00 +10°C° 0 mm 3 mps 751 mmHg 91%

    Tomorrow, 21 October, Monday

    Time Temperature Precipitation Wind Pressure Humidity
    00:00 +10°C° 0 mm 3 mps 751 mmHg 92%
    01:00 +9°C° 0 mm 3 mps 751 mmHg 92%
    02:00 +9°C° 0 mm 3 mps 751 mmHg 93%
    03:00 +9°C° 0 mm 3 mps 751 mmHg 93%
    04:00 +9°C° 0 mm 3 mps 751 mmHg 93%
    05:00 +9°C° 0 mm 3 mps 750 mmHg 93%
    06:00 +8°C° 0 mm 4 mps 750 mmHg 93%
    07:00 +10°C° 0 mm 4 mps 750 mmHg 90%
    08:00 +11°C° 0 mm 4 mps 750 mmHg 87%
    09:00 +10°C° 0 mm 5 mps 750 mmHg 84%
    10:00 +13°C° 0 mm 5 mps 750 mmHg 79%
    11:00 +14°C° 0 mm 6 mps 749 mmHg 74%
    12:00 +15°C° 0 mm 6 mps 749 mmHg 69%
    13:00 +15°C° 0 mm 6 mps 749 mmHg 68%
    14:00 +16°C° 0 mm 6 mps 748 mmHg 67%
    15:00 +16°C° 0 mm 6 mps 748 mmHg 66%
    16:00 +15°C° 0 mm 6 mps 748 mmHg 69%
    17:00 +14°C° 0 mm 6 mps 747 mmHg 73%
    18:00 +13°C° 0 mm 5 mps 747 mmHg 76%
    19:00 +13°C° 0 mm 6 mps 746 mmHg 75%
    20:00 +13°C° 0 mm 6 mps 746 mmHg 75%
    21:00 +13°C° 0 mm 6 mps 746 mmHg 75%
    22:00 +13°C° 0 mm 5 mps 746 mmHg 75%
    23:00 +12°C° 0 mm 5 mps 746 mmHg 76%

    Day after tomorrow, 22 October, Tuesday

    Time Temperature Precipitation Wind Pressure Humidity
    00:00 +12°C° 0 mm 4 mps 745 mmHg 77%
    01:00 +12°C° 0.6 mm 4 mps 746 mmHg 82%
    02:00 +11°C° 0.6 mm 3 mps 746 mmHg 88%
    03:00 +11°C° 0.6 mm 3 mps 746 mmHg 93%
    04:00 +10°C° 0.1 mm 3 mps 746 mmHg 94%
    05:00 +10°C° 0.1 mm 3 mps 746 mmHg 96%
    06:00 +9°C° 0.1 mm 3 mps 747 mmHg 97%
    07:00 +9°C° 0 mm 3 mps 747 mmHg 94%
    08:00 +10°C° 0 mm 3 mps 748 mmHg 92%
    09:00 +10°C° 0 mm 3 mps 748 mmHg 90%
    10:00 +10°C° 0 mm 3 mps 748 mmHg 86%
    11:00 +11°C° 0 mm 3 mps 749 mmHg 82%
    12:00 +11°C° 0 mm 3 mps 749 mmHg 78%
    13:00 +11°C° 0 mm 3 mps 749 mmHg 78%
    14:00 +10°C° 0 mm 3 mps 749 mmHg 78%
    15:00 +10°C° 0 mm 3 mps 749 mmHg 78%
    16:00 +9°C° 0 mm 3 mps 749 mmHg 80%
    17:00 +9°C° 0 mm 2 mps 750 mmHg 81%
    18:00 +8°C° 0 mm 2 mps 750 mmHg 82%
    19:00 +9°C° 0 mm 1 mps 750 mmHg 82%
    20:00 +9°C° 0 mm 1 mps 750 mmHg 81%
    21:00 +9°C° 0 mm 1 mps 750 mmHg 81%
    22:00 +9°C° 0 mm 1 mps 750 mmHg 81%
    23:00 +9°C° 0 mm 1 mps 750 mmHg 81%

    23 October, Wednesday

    Time Temperature Precipitation Wind Pressure Humidity
    00:00 +9°C° 0 mm 1 mps 750 mmHg 81%
    01:00 +8°C° 0 mm 1 mps 750 mmHg 83%
    02:00 +7°C° 0 mm 2 mps 750 mmHg 85%
    03:00 +5°C° 0 mm 3 mps 750 mmHg 88%
    04:00 +5°C° 0 mm 3 mps 750 mmHg 90%
    05:00 +5°C° 0 mm 3 mps 750 mmHg 92%
    06:00 +4°C° 0 mm 3 mps 749 mmHg 93%
    07:00 +5°C° 0 mm 4 mps 749 mmHg 91%
    08:00 +6°C° 0 mm 4 mps 749 mmHg 89%
    09:00 +7°C° 0 mm 4 mps 749 mmHg 87%
    10:00 +8°C° 0 mm 5 mps 749 mmHg 81%
    11:00 +9°C° 0 mm 5 mps 749 mmHg 75%
    12:00 +12°C° 0 mm 5 mps 748 mmHg 70%
    13:00 +12°C° 0 mm 5 mps 748 mmHg 68%
    14:00 +13°C° 0 mm 5 mps 748 mmHg 67%
    15:00 +13°C° 0 mm 6 mps 747 mmHg 66%
    16:00 +12°C° 0 mm 5 mps 747 mmHg 70%
    17:00 +10°C° 0 mm 5 mps 747 mmHg 73%
    18:00 +10°C° 0 mm 5 mps 747 mmHg 77%
    19:00 +9°C° 0 mm 5 mps 747 mmHg 80%
    20:00 +9°C° 0 mm 5 mps 747 mmHg 84%
    21:00 +9°C° 0 mm 5 mps 747 mmHg 87%
    22:00 +10°C° 0 mm 4 mps 747 mmHg 89%
    23:00 +8°C° 0 mm 4 mps 747 mmHg 91%

    24 October, Thursday

    Time Temperature Precipitation Wind Pressure Humidity
    00:00 +9°C° 0 mm 3 mps 747 mmHg 93%
    01:00 +9°C° 0 mm 3 mps 747 mmHg 94%
    02:00 +9°C° 0 mm 3 mps 747 mmHg 94%
    03:00 +8°C° 0 mm 3 mps 747 mmHg 95%
    04:00 +8°C° 0 mm 3 mps 747 mmHg 95%
    05:00 +8°C° 0 mm 2 mps 747 mmHg 95%
    06:00 +8°C° 0 mm 2 mps 747 mmHg 95%
    07:00 +9°C° 0 mm 2 mps 747 mmHg 93%
    08:00 +9°C° 0 mm 3 mps 747 mmHg 91%
    09:00 +10°C° 0 mm 3 mps 747 mmHg 89%
    10:00 +11°C° 0 mm 3 mps 747 mmHg 85%
    11:00 +13°C° 0 mm 3 mps 747 mmHg 80%
    12:00 +14°C° 0 mm 3 mps 747 mmHg 75%
    13:00 +14°C° 0 mm 3 mps 747 mmHg 73%
    14:00 +16°C° 0 mm 3 mps 747 mmHg 72%
    15:00 +16°C° 0 mm 3 mps 747 mmHg 71%
    16:00 +14°C° 0 mm 3 mps 747 mmHg 75%
    17:00 +14°C° 0 mm 2 mps 747 mmHg 80%
    18:00 +13°C° 0 mm 2 mps 747 mmHg 85%
    19:00 +12°C° 0 mm 2 mps 748 mmHg 86%
    20:00 +12°C° 0 mm 2 mps 748 mmHg 87%
    21:00 +12°C° 0 mm 2 mps 748 mmHg 88%
    22:00 +12°C° 0 mm 2 mps 748 mmHg 89%
    23:00 +10°C° 0 mm 2 mps 748 mmHg 89%

    25 October, Friday

    Time Temperature Precipitation Wind Pressure Humidity
    00:00 +10°C° 0 mm 3 mps 748 mmHg 90%
    01:00 +10°C° 0 mm 2 mps 748 mmHg 90%
    02:00 +10°C° 0 mm 2 mps 748 mmHg 90%
    03:00 +9°C° 0 mm 2 mps 749 mmHg 91%
    04:00 +9°C° 0 mm 2 mps 749 mmHg 91%
    05:00 +9°C° 0 mm 2 mps 749 mmHg 91%
    06:00 +9°C° 0 mm 2 mps 749 mmHg 91%
    07:00 +9°C° 0 mm 2 mps 749 mmHg 89%
    08:00 +10°C° 0 mm 2 mps 749 mmHg 87%
    09:00 +12°C° 0 mm 2 mps 749 mmHg 84%
    10:00 +13°C° 0 mm 2 mps 749 mmHg 79%
    11:00 +14°C° 0 mm 2 mps 750 mmHg 73%
    12:00 +16°C° 0 mm 2 mps 750 mmHg 68%
    13:00 +16°C° 0 mm 2 mps 750 mmHg 68%
    14:00 +16°C° 0 mm 2 mps 750 mmHg 67%
    15:00 +16°C° 0 mm 2 mps 749 mmHg 67%
    16:00 +15°C° 0 mm 2 mps 749 mmHg 72%
    17:00 +13°C° 0 mm 2 mps 749 mmHg 76%
    18:00 +12°C° 0 mm 2 mps 749 mmHg 81%
    19:00 +12°C° 0 mm 2 mps 750 mmHg 82%
    20:00 +10°C° 0 mm 2 mps 750 mmHg 83%
    21:00 +10°C° 0 mm 2 mps 750 mmHg 84%
    22:00 +10°C° 0 mm 2 mps 750 mmHg 85%
    23:00 +9°C° 0 mm 2 mps 750 mmHg 87%
    Show more